Погода в Чкаловском

Россия / Оренбургская область     53°29′21″N   52°56′16″E
темп.,
°C
ветер,
м/с
пор.,
м/с
влажн.,
%
обл.,
%
осадки,
мм/ч
давл.,
гПа
погр.,
м
12 мая, ср
ср1223:00+18юв115634 0.0 102611
02:00+16ююв1158100 0.0 102611
05:00+15вюв116093 0.0 102711
08:00+18вюв125495 0.0 102788
11:00+22юв454072 0.0 1027916
14:00+24юв57312 0.0 10271989
17:00+24юв56295 0.0 10272099
20:00+20юв334888 0.0 102651
13 мая, чт
чт1323:00+17вюв225364 0.0 102711
02:00+15в33556 0.0 102733
05:00+14вюв37605 0.0 1027109
08:00+16вюв4105918 0.0 1027316
11:00+22юв68395 0.0 1027759
14:00+25юв67315 0.0 10261477
17:00+25юв56315 0.0 10251619
20:00+22юв35491 0.0 102579
14 мая, пт
пт1423:00+18юв22531 0.0 102616
02:00+16юв22547 0.0 102621
05:00+15юв325637 0.0 102623
08:00+17юв275774 0.0 1026200
11:00+24ю573924 0.0 1026617
14:00+27ю56305 0.0 10251403
17:00+27ююз56285 0.0 10251857
20:00+24ю33461 0.0 102442
15 мая, сб
сб1523:00+19ююв22455 0.0 102512
02:00+17ююв22475 0.0 102411
05:00+16юв225028 0.0 102511
08:00+19юв245138 0.0 1025129
11:00+25ю46370 0.0 1024637
14:00+28ююз55285 0.0 10241883
17:00+29ююз45272 0.0 10232131
20:00+25ю22415 0.0 102214
16 мая, вс
вс1623:00+20юв22440 0.0 102211
02:00+19ююв22470 0.0 102111
05:00+17юв22491 0.0 102211
08:00+21юв24505 0.0 1022133
11:00+27ююв46384 0.0 1021660
14:00+29ююз47305 0.0 10203222
17:00+30ююз45274 0.0 10193027
20:00+26ю33441 0.0 101842